OKEAN-0
1 25860U 99039A 11342.91138728 .00001175 00000-0 18626-3 0 4862
2 25860 097.9090 304.8030 0001561 092.9548 267.1839 14.74001403666395
NOAA-16
1 26536U 00055A 11342.81015446 .00000171 00000-0 92145-4 0 5329
2 26536 099.1223 016.7404 0009906 261.9003 098.1529 14.12680696578015
NOAA-17
1 27453U 02032A 11341.83250333 .00000380 00000-0 18227-3 0 05142
2 27453 098.3602 013.3903 0011806 006.0964 354.0333 14.24363766491378
NOAA-18
1 28654U 05018A 11341.83923247 .00000452 00000-0 27355-3 0 09904
2 28654 099.0198 293.6097 0014157 339.2188 020.8392 14.11570540337422
NOAA-19
1 33591U 09005A 11341.80407689 .00000501 00000-0 30176-3 0 01793
2 33591 098.8445 279.1784 0013736 202.5755 157.4796 14.11260577145873
HUBBLE
1 20580U 90037B 11341.26288436 .00003571 00000-0 25385-3 0 9018
2 20580 028.4713 325.5369 0003586 162.9826 197.0928 15.01951674985693
ISS
1 25544U 98067A 11343.07331196 .00022769 00000-0 28985-3 0 5865
2 25544 051.6445 000.8637 0028436 142.0785 259.7596 15.58772298748210
CO-58
1 28895U 05043F 11342.66662596 .00001387 00000-0 29528-3 0 439
2 28895 097.9418 212.0668 0018803 034.9294 325.3167 14.60372818325702
FALCON
1 30776U 07006E 11341.50955803 .00008319 00000-0 56091-3 0 2326
2 30776 035.4346 012.3789 0002074 163.7372 196.3412 15.06028956261177
MAST
1 31126U 07012K 11341.95724080 .00001270 00000-0 29480-3 0 03291
2 31126 097.8834 359.2578 0094364 350.3632 009.5753 14.53946764246337
CAPE1
1 31130U 07012P 11342.58522708 .00001478 00000-0 34748-3 0 3393
2 31130 097.8896 356.3872 0102010 000.1719 359.9427 14.52653312245959
COMPASS
1 32787U 08021E 11342.73068949 .00004146 00000-0 51311-3 0 1648
2 32787 097.8290 043.1494 0015018 330.5370 029.4996 14.83202504195424
AAUSAT2
1 32788U 08021F 11342.73761923 .00004532 00000-0 55697-3 0 1562
2 32788 097.8299 043.4429 0014369 331.8827 028.1606 14.83453903195441
DO-64
1 32789U 08021G 11341.79737924 .00007507 00000-0 89735-3 0 01703
2 32789 097.8399 043.9079 0014634 330.7029 029.3348 14.84392025195327
CO-66
1 32791U 08021J 11342.72129819 .00003157 00000-0 39643-3 0 1595
2 32791 097.8306 043.0120 0015553 329.9096 030.1228 14.82759598195362
RS-30
1 32953U 08025A 11342.64712826 .00000010 00000-0 00000 0 0 3246
2 32953 082.5030 054.2510 0018802 009.9750 350.1704 12.43018134160765
TACSAT-3
1 35001U 09028A 11342.86143488 .00084858 00000-0 90164-3 0 7894
2 35001 040.4485 185.0060 0008338 034.6204 325.5110 15.62947682144250
PHARMSAT
1 35002U 09028B 11342.92112570 .00055316 00000-0 69124-3 0 7305
2 35002 040.4709 184.8947 0010885 077.7949 282.4090 15.58857281144264
HAWKSAT1
1 35003U 09028C 11276.79285837 .02274821 58283-2 19360-2 0 8114
2 35003 040.4398 174.3672 0011414 274.3918 085.3844 16.13812532134570
CP6
1 35004U 09028D 11247.64656856 .16152067 73217-5 10011-2 0 7842
2 35004 040.4403 342.9642 0002956 038.0069 322.2231 16.41039951130139
METEOR-M
1 35865U 09049A 11342.60124159 .00000031 00000-0 34078-4 0 9662
2 35865 098.6839 035.2574 0001679 249.8325 110.2678 14.21850143115375
RS-38
1 35869U 09049E 11342.71984713 .00000113 00000-0 70917-4 0 9492
2 35869 098.6813 035.3966 0003867 245.1421 114.9346 14.22041941115400
ARISSAT1
1 37772U 98067CK 11342.51301127 .00359917 00000-0 11912-2 0 3889
2 37772 051.6349 355.3173 0007320 085.8092 050.8257 15.88861535 19813
SRMSAT
1 37839U 11058B 11341.46199373 .00000619 00000-0 19019-3 0 00469
2 37839 019.9600 085.7442 0019087 260.5245 099.3001 14.12002058007974
JUGNU
1 37841U 11058D 11341.46720886 .00000264 00000-0 00000-0 0 00453
2 37841 019.9709 086.8232 0012477 235.1714 124.7517 14.10095160007969
